Retour au catalogue

FENGYUN 1C DEB

ActifPO
NORAD 37077·DEBRIS·🇨🇳 China

Lancé May 10, 1999 depuis Taiyuan Satellite Launch Center

Loading…

Prochains Passages (prochaines 24 heures)

TLE

FraisSource: Space-Track

Époque: Sep 14, 2026, 05:32 UTC

1 37077U 99025EFM 26257.23098706  .00000741  00000-0  23039-3 0  9998
2 37077  99.0211 352.8110 0094482 233.3489 125.8985 14.41800660889246

Suivez FENGYUN 1C DEB en temps réel avec AllMySat

Download on the App Store